Weather in Yuribey

Russia / Yamalo-Nenets Autonomous Okrug     71°05′42″N   76°55′25″E
temp.,
°C
wind,
m/s
gust,
m/s
humid.,
%
clouds,
%
prec.,
mm/h
press.,
hPa
HPBL,
m
9 december, thu
thu923:00−13nw91589100 0.1 998600
02:00−16nw91591100 0.1 1002565
05:00−18nw8159296 0.1 1005396
08:00−20nw7149457 0.0 1008299
11:00−21nw7149530 0.0 1011280
14:00−22nnw5119625 0.0 1015197
17:00−26nw48995 0.0 101884
20:00−28nw351005 0.0 102151
10 december, fri
fri1023:00−31nw2210025 0.0 102311
02:00−32nw2210028 0.0 10259
05:00−32nw11100100 0.0 10269
08:00−33ese11100100 0.0 10269
11:00−31se22100100 0.0 102715
14:00−32se2210020 0.0 102717
17:00−28se3698100 0.0 102792
20:00−26se4797100 0.0 1026136
11 december, sat
sat1123:00−25ese4894100 0.0 1026153
02:00−24ese4893100 0.0 1026191
05:00−25ese4890100 0.0 1025181
08:00−25e4789100 0.0 1026146
11:00−26e3789100 0.0 1026154
14:00−26e3690100 0.0 1026129
17:00−26e2489100 0.0 102788
20:00−26e2489100 0.0 102672
12 december, sun
sun1223:00−26e2291100 0.0 102660
02:00−25ene1192100 0.0 102625
05:00−25ene1193100 0.0 102520
08:00−25ene1194100 0.0 102517
11:00−25ne119481 0.0 102510
14:00−27nne119534 0.0 10269
17:00−31nne11955 0.0 10279
20:00−32nne11935 0.0 10279
13 december, mon
mon1323:00−33nw00925 0.0 10289
02:00−33wsw11915 0.0 10289
05:00−33sw11905 0.0 10299
08:00−33sw22925 0.0 102914
11:00−31ssw33895 0.0 102832
14:00−29ssw348569 0.0 102852
17:00−28ssw478267 0.0 102678
20:00−27s5108186 0.0 1024124